Location: Miles
(41.4492°N, 81.6087°W)
Time: 21:03:44
(UTC+00:00)

Vanguard 1 - Pass Details

Date: 14 September 2024
Orbit: 649 x 3825 km, 34.3° (Epoch: 02 October)

Event Time Altitude Azimuth Distance (km) Brightness Sun altitude
Rises 00:04:36 0° 262° (W) 3,145 14.4 -5.8°
Reaches altitude 10° 00:09:10 10° 221° (SW) 2,044 12.2 -6.6°
Maximum altitude 00:10:04 11° 209° (SSW) 2,001 11.9 -6.8°
Drops below altitude 10° 00:10:58 10° 197° (SSW) 2,038 11.8 -6.9°
Sets 00:15:29 0° 156° (SSE) 3,110 12.3 -7.8°
